Tracking 17267 objects as of 31-August-2015
HD Live streaming from Space Station

COSMOS 1803

Track COSMOS 1803 now!
10-day predictions
COSMOS 1803 is classified as:


NORAD ID: 17177
Int'l Code: 1986-094A
Perigee: 1,503.5 km
Apogee: 1,510.8 km
Inclination: 82.6 °
Period: 116.0 minutes
Semi major axis: 7878 km
RCS: 10.2434 m2 (large)
Launch date: December 2, 1986
Source: Commonwealth of Independent States (former USSR) (CIS)
Your satellite tracking list
Your tracking list is empty





NASA's NSSDC Master Catalog

Two Line Element Set (TLE):
1 17177U 86094A   15242.16799258 -.00000007  00000-0 -12698-3 0  9999
2 17177 082.6021 262.7846 0004648 057.5371 005.0111 12.41552891302741

Source of the keplerian elements: AFSPC

N2YO: 249